OceanSat 1 rocket - Orbit

View from above orbital plane
View from above orbital plane
View from above satellite
View from above satellite

Ground track
Ground track

The orbit data is extracted from the following two-line orbital elements,

1 25759U 99029D   13144.20772668  .00000220  00000-0  64455-4 0  2195
2 25759 098.4870 034.2811 0020913 108.4888 037.5227 14.53139331741930
Epoch (UTC): 24 May 2013 04:59:07
Eccentricity: 0.0020913
inclination: 98.4870°
perigee height: 700 km
apogee height: 730 km
right ascension of ascending node: 34.2811°
argument of perigee: 108.4888°
revolutions per day: 14.53139331
mean anomaly at epoch: 37.5227°
orbit number at epoch: 74193

The dashed part of the orbit path shows where the satellite is in the earth's shadow,  

Developed and maintained by Chris Peat, Heavens-Above GmbH. Please read the updated FAQ before sending e-mail. Imprint. DLR